sat.trackr.live / text

‹ back to catalog

STARLINK-34582

NORAD 64781 · 2025-147AC

PAYLOAD ACTIVE UNKNOWN

§ Identity

Operator
Country
US
Launch date
2025-07-08
Launch site
AFETR
Launch vehicle
Mass (kg)
RCS (m²)

Purposes: comms

External: N2YO · Heavens-Above · Gunter

§ Orbital elements

Epoch: 2026-05-24T16:54:46.183680Z

Period
93.85 min
Inclination
53.1595°
Eccentricity
0.0001309
Mean motion
15.34387748 rev/d
Perigee alt
461.8 km
Apogee alt
463.6 km
Semi-major
6,840.9 km
B*
5.5595e-4
RAAN
248.6962°
Arg perigee
92.1222°
Mean anomaly
267.9930°
Rev number
5,033

§ Raw data

STARLINK-345821 64781U 25147AC  26144.70470120  .00018446  00000+0  55595-3 0  99972 64781  53.1595 248.6962 0001309  92.1222 267.9930 15.34387748 50331

JSON: /api/v1/satellites/64781 · /tle

For live sub-satellite position, see the globe view (requires WebGL).

§ Visibility from observer

Set your observer location to see the next 7 days of passes ≥ 10°. The values pass through the URL so the page stays shareable.

No JS? Fill the form by hand. The geolocation button needs JavaScript.